User: anonymous   Login
Location: Unspecified
(0.0000°N, 0.0000°E)
Time: 10:12:20
(UTC+00:00)
Language:

GONETS M 08 (M18) - Orbit

View from above orbital plane
View from above orbital plane
View from above satellite
View from above satellite

Ground track
Ground track

The orbit data is extracted from the following two-line orbital elements,

1 40061U 14036A   18113.91141587 +.00000032 +00000-0 +15535-3 0  9992
2 40061 082.5145 356.1190 0028921 159.6012 200.6230 12.42877809172729
Epoch (UTC): 23 April 2018 21:52:26
Eccentricity: 0.0028921
inclination: 82.5145°
perigee height: 1471 km
apogee height: 1517 km
right ascension of ascending node: 356.1190°
argument of perigee: 159.6012°
revolutions per day: 12.42877809
mean anomaly at epoch: 200.6230°
orbit number at epoch: 17272

The dashed part of the orbit path shows where the satellite is in the earth's shadow,  

DLR